Weather History for KCTB - July, 2013

Change the Weather History Date:

Saturday, July 20, 2013

  Actual Average Record
Temperature  
Mean Temperature 70 °F 66 °F  
Max Temperature 88 °F 81 °F 102 °F (1921)
Min Temperature 51 °F 50 °F 36 °F (1980)
Degree Days  
Heating Degree Days 0 2  
Month to date heating degree days 26 66  
Since 1 June heating degree days 235 299  
Since 1 July heating degree days 26 66  
Cooling Degree Days 5 3  
Month to date cooling degree days 62 39  
Year to date cooling degree days 76 56  
Since 1 June cooling degree days 74 54  
Growing Degree Days 20 (Base 50)    
Moisture  
Dew Point 44 °F    
Average Humidity 53    
Maximum Humidity 89    
Minimum Humidity 16    
Precipitation  
Precipitation 0.00 in 0.04 in 0.52 in (1912)
Month to date precipitation 1.48 0.91  
Year to date precipitation 9.27 7.10  
Snow  
Snow 0.00 in - - ()
Snow Depth 0.00 in    
Sea Level Pressure  
Sea Level Pressure 29.88 in    
Wind  
Wind Speed 9 mph (West)    
Max Wind Speed 20 mph    
Max Gust Speed 25 mph    
Visibility 10 miles    
Events      
T = Trace of Precipitation, MM = Missing Value Source: NWS Daily Summary

Daily Weather History Graph

Daily Weather History Graph

Search for Another Location

Airport or City:

Trip Planner

Search our weather history database for the weather conditions in past years. The results will help you decide how hot, cold, wet, or windy it might be!

Date:

Astronomy

Jul. 20, 2013 Rise Set
Actual Time 5:49 AM MDT 9:21 PM MDT
Civil Twilight 5:09 AM MDT 10:01 PM MDT
Nautical Twilight 4:17 AM MDT 10:53 PM MDT
Astronomical Twilight 3:04 AM MDT 12:04 AM MDT
Moon 7:27 PM MDT (7/20) 3:33 AM MDT (7/20)
Length of Visible Light 16h 51m
Length of Day
15h 32m
Waxing Gibbous, 94% of the Moon is Illuminated
Jul 20
Waxing Gibbous
Jul 22
Full
Jul 29
Last Quarter
Aug 6
New
Aug 14
First Quarter

Hourly Weather History & Observations

Time (MDT) Temp. Dew Point Humidity Pressure Visibility Wind Dir Wind Speed Gust Speed Precip Events Conditions
12:56 AM 55.0 °F 48.0 °F 77% 30.01 in 10.0 mi Calm Calm - N/A   Clear
1:56 AM 55.0 °F 48.9 °F 80% 30.00 in 10.0 mi WSW 10.4 mph - N/A   Clear
2:56 AM 54.0 °F 50.0 °F 86% 30.00 in 10.0 mi WSW 6.9 mph - N/A   Scattered Clouds
3:56 AM 57.0 °F 50.0 °F 77% 30.01 in 10.0 mi North 10.4 mph - N/A   Overcast
4:56 AM 54.0 °F 48.9 °F 83% 29.99 in 10.0 mi North 6.9 mph - N/A   Clear
5:56 AM 53.1 °F 48.9 °F 86% 30.00 in 10.0 mi SW 3.5 mph - N/A   Clear
6:56 AM 54.0 °F 50.0 °F 86% 29.99 in 10.0 mi Calm Calm - N/A   Clear
7:56 AM 60.1 °F 52.0 °F 75% 29.98 in 10.0 mi North 5.8 mph - N/A   Clear
8:56 AM 64.9 °F 50.0 °F 58% 29.96 in 10.0 mi SSE 3.5 mph - N/A   Clear
9:56 AM 70.0 °F 51.1 °F 51% 29.95 in 10.0 mi South 6.9 mph - N/A   Clear
10:56 AM 75.0 °F 52.0 °F 44% 29.93 in 10.0 mi South 12.7 mph - N/A   Clear
11:56 AM 79.0 °F 51.1 °F 38% 29.90 in 10.0 mi SSE 8.1 mph - N/A   Clear
12:56 PM 82.9 °F 43.0 °F 24% 29.87 in 10.0 mi Variable 5.8 mph - N/A   Mostly Cloudy
1:56 PM 86.0 °F 44.1 °F 23% 29.85 in 10.0 mi NNW 8.1 mph - N/A   Partly Cloudy
2:56 PM 87.1 °F 37.9 °F 18% 29.83 in 10.0 mi NW 10.4 mph - N/A   Clear
3:56 PM 87.1 °F 37.0 °F 17% 29.81 in 10.0 mi WNW 16.1 mph 21.9 mph N/A   Partly Cloudy
4:56 PM 87.1 °F 37.0 °F 17% 29.80 in 10.0 mi West 10.4 mph 17.3 mph N/A   Partly Cloudy
5:56 PM 87.1 °F 35.1 °F 16% 29.78 in 10.0 mi West 16.1 mph 19.6 mph N/A   Clear
6:56 PM 86.0 °F 35.1 °F 16% 29.76 in 10.0 mi WSW 10.4 mph - N/A   Clear
7:56 PM 82.0 °F 39.0 °F 22% 29.75 in 10.0 mi West 9.2 mph - N/A   Clear
8:56 PM 75.0 °F 39.9 °F 28% 29.75 in 10.0 mi West 8.1 mph - N/A   Clear
9:56 PM 71.1 °F 37.9 °F 30% 29.75 in 10.0 mi West 6.9 mph - N/A   Clear
10:56 PM 66.9 °F 37.9 °F 34% 29.75 in 10.0 mi West 6.9 mph - N/A   Clear
11:56 PM 62.1 °F 39.9 °F 44% 29.74 in 10.0 mi WNW 11.5 mph - N/A   Clear